Total_Precipitation_Accumulation
0.70 0.59 0.67 0.67 0.55 0.62 0.92 0.83 0.76 0.55 0.52 0.59 0.58 0.59 0.57 0.52 0.47 0.40 0.38 0.37 0.35 0.36 0.38 0.39 0.41 0.47 0.58 0.69 0.77 0.91 1.03 1.05 1.04 1.00 0.97 0.97 0.99 0.97 0.98 1.02 1.08 1.15 1.15 1.08
0.73 0.44 0.46 0.50 0.41 0.46 0.56 0.52 0.50 0.42 0.49 0.46 0.45 0.47 0.48 0.43 0.38 0.34 0.34 0.33 0.30 0.28 0.28 0.31 0.34 0.38 0.46 0.59 0.69 0.80 0.92 0.98 1.00 0.98 0.94 0.92 0.90 0.90 0.88 0.92 0.99 1.08 1.13 1.14
0.85 0.44 0.51 0.57 0.45 0.45 0.52 0.48 0.46 0.54 0.51 0.35 0.36 0.43 0.52 0.46 0.37 0.33 0.34 0.32 0.30 0.29 0.27 0.27 0.30 0.37 0.46 0.56 0.61 0.67 0.75 0.83 0.88 0.88 0.89 0.89 0.88 0.91 0.97 1.00 1.04 1.12 1.19 1.23
0.94 0.70 0.84 0.61 0.38 0.37 0.45 0.47 0.43 0.45 0.38 0.34 0.38 0.40 0.43 0.44 0.40 0.35 0.29 0.28 0.28 0.29 0.27 0.27 0.29 0.34 0.45 0.57 0.66 0.72 0.77 0.80 0.80 0.84 0.88 0.92 0.98 1.05 1.14 1.21 1.23 1.29 1.37 1.39
0.97 0.75 0.50 0.31 0.24 0.33 0.44 0.49 0.39 0.35 0.29 0.25 0.27 0.34 0.36 0.33 0.35 0.35 0.30 0.29 0.29 0.30 0.32 0.32 0.34 0.36 0.42 0.56 0.66 0.73 0.81 0.86 0.88 0.94 1.02 1.07 1.16 1.23 1.26 1.34 1.34 1.31 1.31 1.31
0.99 0.81 0.45 0.31 0.15 0.16 0.32 0.52 0.29 0.25 0.26 0.23 0.24 0.36 0.37 0.34 0.37 0.38 0.34 0.31 0.32 0.31 0.31 0.35 0.40 0.43 0.51 0.63 0.73 0.82 0.91 1.01 1.02 1.04 1.10 1.12 1.15 1.13 1.11 1.12 1.11 1.07 1.03 1.01
0.80 0.76 0.41 0.26 0.10 0.11 0.40 0.53 0.28 0.27 0.28 0.27 0.33 0.40 0.35 0.32 0.35 0.38 0.40 0.41 0.41 0.41 0.44 0.50 0.55 0.62 0.71 0.81 0.94 1.00 1.02 1.08 1.06 1.01 1.03 1.01 0.95 0.90 0.85 0.81 0.77 0.75 0.74 0.72
0.56 0.80 0.56 0.27 0.18 0.36 0.50 0.32 0.26 0.25 0.26 0.28 0.27 0.24 0.24 0.25 0.29 0.32 0.35 0.39 0.44 0.50 0.53 0.55 0.65 0.76 0.86 0.95 1.01 0.97 0.93 0.91 0.85 0.76 0.73 0.70 0.68 0.69 0.68 0.66 0.67 0.66 0.63 0.62
0.55 0.63 0.51 0.37 0.38 0.40 0.34 0.30 0.26 0.26 0.24 0.24 0.25 0.25 0.25 0.24 0.25 0.27 0.27 0.28 0.33 0.41 0.46 0.46 0.53 0.60 0.67 0.68 0.67 0.66 0.65 0.65 0.63 0.59 0.57 0.57 0.58 0.61 0.64 0.63 0.64 0.64 0.62 0.64
0.48 0.47 0.37 0.33 0.29 0.26 0.24 0.26 0.23 0.22 0.21 0.20 0.24 0.23 0.22 0.22 0.22 0.24 0.24 0.25 0.26 0.29 0.33 0.35 0.37 0.41 0.44 0.45 0.45 0.49 0.53 0.55 0.57 0.58 0.54 0.55 0.57 0.58 0.64 0.67 0.68 0.67 0.65 0.66
0.43 0.35 0.29 0.26 0.23 0.24 0.21 0.18 0.18 0.17 0.16 0.18 0.19 0.19 0.20 0.21 0.22 0.23 0.23 0.23 0.25 0.32 0.36 0.39 0.38 0.40 0.42 0.45 0.48 0.51 0.53 0.57 0.61 0.63 0.60 0.59 0.59 0.61 0.66 0.71 0.79 0.86 0.83 0.78
0.50 0.36 0.36 0.31 0.23 0.20 0.20 0.19 0.20 0.20 0.19 0.18 0.20 0.23 0.23 0.24 0.25 0.25 0.25 0.25 0.25 0.29 0.35 0.40 0.40 0.40 0.42 0.46 0.53 0.57 0.56 0.57 0.60 0.64 0.65 0.64 0.60 0.60 0.66 0.70 0.74 0.77 0.79 0.81
0.38 0.26 0.24 0.22 0.18 0.17 0.19 0.22 0.23 0.23 0.23 0.24 0.24 0.26 0.27 0.29 0.29 0.28 0.27 0.27 0.31 0.33 0.35 0.39 0.41 0.42 0.46 0.49 0.54 0.59 0.61 0.62 0.62 0.64 0.67 0.68 0.65 0.64 0.66 0.69 0.73 0.73 0.73 0.75
0.21 0.20 0.21 0.19 0.21 0.21 0.21 0.23 0.22 0.23 0.24 0.26 0.27 0.27 0.27 0.28 0.27 0.28 0.32 0.35 0.35 0.35 0.34 0.36 0.36 0.40 0.45 0.48 0.51 0.56 0.58 0.62 0.65 0.64 0.69 0.73 0.75 0.72 0.69 0.69 0.69 0.66 0.69 0.76
0.19 0.22 0.27 0.25 0.22 0.21 0.20 0.19 0.18 0.19 0.20 0.21 0.24 0.26 0.27 0.29 0.31 0.32 0.34 0.33 0.31 0.30 0.31 0.31 0.32 0.37 0.40 0.44 0.48 0.53 0.58 0.63 0.65 0.66 0.69 0.75 0.79 0.82 0.78 0.73 0.71 0.68 0.65 0.71
0.24 0.22 0.23 0.24 0.24 0.22 0.20 0.20 0.22 0.23 0.23 0.24 0.25 0.28 0.30 0.31 0.31 0.32 0.33 0.32 0.33 0.34 0.35 0.33 0.35 0.37 0.38 0.42 0.46 0.50 0.57 0.69 0.74 0.74 0.74 0.77 0.78 0.80 0.81 0.78 0.75 0.70 0.69 0.75
0.35 0.32 0.29 0.29 0.28 0.27 0.27 0.29 0.31 0.31 0.28 0.28 0.29 0.29 0.28 0.27 0.26 0.28 0.30 0.31 0.33 0.35 0.35 0.36 0.39 0.37 0.37 0.40 0.46 0.51 0.55 0.62 0.71 0.69 0.70 0.75 0.78 0.81 0.84 0.84 0.79 0.73 0.72 0.81
0.42 0.42 0.39 0.39 0.37 0.35 0.33 0.31 0.31 0.31 0.31 0.31 0.29 0.28 0.28 0.28 0.30 0.31 0.32 0.30 0.29 0.29 0.33 0.38 0.39 0.36 0.34 0.37 0.43 0.48 0.52 0.57 0.62 0.66 0.69 0.75 0.82 0.83 0.83 0.83 0.80 0.76 0.72 0.77
0.36 0.38 0.38 0.38 0.38 0.37 0.37 0.37 0.37 0.36 0.35 0.33 0.31 0.32 0.32 0.33 0.35 0.36 0.33 0.31 0.31 0.33 0.36 0.36 0.39 0.36 0.36 0.39 0.45 0.48 0.51 0.54 0.57 0.61 0.66 0.73 0.76 0.74 0.75 0.78 0.79 0.77 0.75 0.76
0.36 0.37 0.38 0.38 0.37 0.36 0.38 0.38 0.36 0.35 0.35 0.33 0.33 0.33 0.34 0.35 0.35 0.34 0.32 0.32 0.38 0.42 0.38 0.38 0.37 0.35 0.37 0.41 0.48 0.49 0.50 0.54 0.57 0.59 0.63 0.69 0.71 0.71 0.70 0.72 0.73 0.74 0.74 0.76
0.39 0.38 0.38 0.39 0.39 0.38 0.38 0.37 0.35 0.37 0.37 0.35 0.35 0.36 0.37 0.36 0.34 0.32 0.30 0.32 0.34 0.33 0.33 0.34 0.33 0.34 0.40 0.50 0.55 0.51 0.50 0.53 0.58 0.62 0.66 0.67 0.68 0.68 0.67 0.67 0.68 0.69 0.71 0.73
0.38 0.38 0.39 0.38 0.36 0.37 0.37 0.37 0.37 0.37 0.37 0.37 0.37 0.36 0.35 0.34 0.32 0.29 0.30 0.35 0.35 0.36 0.36 0.33 0.35 0.43 0.56 0.65 0.58 0.52 0.53 0.56 0.59 0.63 0.66 0.67 0.68 0.67 0.64 0.64 0.67 0.66 0.66 0.68
0.33 0.34 0.36 0.37 0.37 0.37 0.35 0.35 0.36 0.35 0.36 0.37 0.39 0.40 0.38 0.36 0.34 0.35 0.37 0.34 0.34 0.36 0.37 0.37 0.44 0.55 0.63 0.60 0.51 0.51 0.53 0.56 0.57 0.59 0.62 0.62 0.63 0.63 0.63 0.62 0.61 0.61 0.63 0.63
0.25 0.26 0.27 0.28 0.26 0.25 0.27 0.29 0.29 0.29 0.31 0.33 0.34 0.35 0.35 0.34 0.32 0.32 0.36 0.37 0.36 0.38 0.37 0.40 0.48 0.54 0.55 0.49 0.46 0.48 0.50 0.51 0.52 0.53 0.54 0.54 0.54 0.55 0.56 0.57 0.57 0.55 0.56 0.56
0.18 0.18 0.17 0.17 0.18 0.20 0.22 0.22 0.21 0.22 0.23 0.26 0.28 0.28 0.29 0.32 0.36 0.35 0.33 0.34 0.34 0.35 0.35 0.36 0.40 0.43 0.42 0.41 0.42 0.44 0.46 0.49 0.53 0.55 0.53 0.52 0.51 0.51 0.51 0.50 0.52 0.51 0.51 0.52
0.13 0.13 0.14 0.14 0.15 0.17 0.17 0.17 0.19 0.20 0.21 0.23 0.25 0.27 0.28 0.30 0.32 0.34 0.34 0.33 0.33 0.34 0.35 0.35 0.35 0.35 0.36 0.37 0.38 0.39 0.41 0.42 0.44 0.46 0.46 0.47 0.48 0.49 0.48 0.47 0.46 0.48 0.49 0.49
0.12 0.12 0.12 0.11 0.12 0.14 0.15 0.17 0.19 0.20 0.22 0.26 0.29 0.28 0.29 0.30 0.31 0.32 0.31 0.30 0.31 0.31 0.32 0.33 0.33 0.34 0.35 0.36 0.35 0.35 0.36 0.38 0.40 0.42 0.42 0.44 0.45 0.46 0.46 0.46 0.47 0.47 0.48 0.48